GW0175 Weather Reports


time (UTC)temp
F
wind
direction
speed
knots
gust
knots
rain 1hr
in
rain 24hr
in
rain mn
in
humidity
%
barometer
mb
20260505191834 77 266 7.8 8.7 0.00 0.00 0.00 29 1006.6
20260505191332 76 256 8.7 13.0 0.00 0.00 0.00 29 1006.7
20260505190829 76 275 7.0 13.0 0.00 0.00 0.00 30 1006.9
20260505190324 76 270 3.5 9.6 0.00 0.00 0.00 29 1006.8
20260505185820 76 294 5.2 12.2 0.00 0.00 0.00 29 1006.7
20260505185317 75 284 4.3 12.2 0.00 0.00 0.00 29 1007.1
20260505184813 75 345 1.7 10.4 0.00 0.00 0.00 29 1006.8
20260505184310 75 307 11.3 12.2 0.00 0.00 0.00 28 1006.7
20260505183807 76 275 3.5 14.8 0.00 0.00 0.00 29 1007.2
20260505183304 76 253 5.2 9.6 0.00 0.00 0.00 28 1006.9
20260505182801 76 232 3.5 11.3 0.00 0.00 0.00 28 1007.2
20260505182257 76 318 2.6 11.3 0.00 0.00 0.00 29 1007.3
20260505181754 76 263 4.3 7.8 0.00 0.00 0.00 30 1007.3
20260505181251 76 263 2.6 7.8 0.00 0.00 0.00 30 1007.3
20260505180748 76 290 2.6 6.1 0.00 0.00 0.00 30 1007.5
20260505180244 76 313 2.6 9.6 0.00 0.00 0.00 29 1007.5
20260505175741 76 270 4.3 10.4 0.00 0.00 0.00 29 1007.6
20260505175237 76 266 10.4 14.8 0.00 0.00 0.00 29 1007.4
20260505174734 76 285 3.5 13.0 0.00 0.00 0.00 30 1007.2
20260505174231 76 296 0.0 8.7 0.00 0.00 0.00 29 1007.5
20260505173727 76 249 9.6 12.2 0.00 0.00 0.00 30 1007.5
20260505173224 76 275 3.5 10.4 0.00 0.00 0.00 30 1007.6
20260505172721 76 298 4.3 13.0 0.00 0.00 0.00 31 1007.5
20260505172218 76 263 4.3 7.0 0.00 0.00 0.00 31 1007.3
20260505171718 76 246 8.7 13.0 0.00 0.00 0.00 31 1007.2
20260505171215 76 255 3.5 8.7 0.00 0.00 0.00 32 1007.3
20260505170712 76 274 5.2 7.0 0.00 0.00 0.00 32 1007.2
20260505170209 76 277 5.2 8.7 0.00 0.00 0.00 32 1007.4
20260505165704 76 279 4.3 11.3 0.00 0.00 0.00 32 1007.4
20260505165200 75 259 5.2 12.2 0.00 0.00 0.00 33 1007.4
20260505164655 76 264 2.6 9.6 0.00 0.00 0.00 33 1007.3
20260505164153 76 240 4.3 11.3 0.00 0.00 0.00 33 1007.2
20260505163651 76 228 5.2 8.7 0.00 0.00 0.00 34 1007.4
20260505163149 76 263 3.5 11.3 0.00 0.00 0.00 34 1007.4
20260505162646 75 247 6.1 8.7 0.00 0.00 0.00 33 1007.5
20260505162144 76 259 6.1 10.4 0.00 0.00 0.00 32 1007.5
20260505161640 76 308 7.8 10.4 0.00 0.00 0.00 33 1007.6
20260505161138 76 240 6.1 11.3 0.00 0.00 0.00 33 1007.5
20260505160636 75 263 3.5 12.2 0.00 0.00 0.00 33 1007.5
20260505160133 75 270 3.5 13.0 0.00 0.00 0.00 33 1007.4
20260505153112 74 131 1.7 4.3 0.00 0.00 0.00 38 1007.3
20260505152609 74 303 0.0 3.5 0.00 0.00 0.00 35 1007.2
20260505152104 73 4 3.5 4.3 0.00 0.00 0.00 36 1007.1
20260505151600 73 98 0.0 2.6 0.00 0.00 0.00 39 1007.4
20260505151058 72 29 0.9 2.6 0.00 0.00 0.00 40 1007.4
20260505150553 72 49 2.6 3.5 0.00 0.00 0.00 42 1007.4
20260505140519 70 25 2.6 7.8 0.00 0.00 0.00 37 1007.3
20260505124932 68 259 2.6 2.6 0.00 0.00 0.00 42 1006.0
20260505124429 68 261 0.0 3.5 0.00 0.00 0.00 42 1005.9
20260505123925 67 255 0.9 4.3 0.00 0.00 0.00 43 1006.0
20260505123422 66 264 0.9 4.3 0.00 0.00 0.00 45 1005.7
20260505122917 66 301 1.7 6.1 0.00 0.00 0.00 44 1005.4
20260505122416 65 286 0.0 2.6 0.00 0.00 0.00 47 1005.7
20260505121912 64 8 0.0 0.0 0.00 0.00 0.00 50 1006.0
20260505121409 65 276 0.0 3.5 0.00 0.00 0.00 46 1006.1
20260505120905 66 346 0.0 2.6 0.00 0.00 0.00 46 1005.6
20260505120402 68 300 0.9 2.6 0.00 0.00 0.00 38 1005.7
20260505115900 68 270 1.7 1.7 0.00 0.00 0.00 37 1005.7
20260505115357 68 278 0.9 1.7 0.00 0.00 0.00 37 1005.7
20260505114855 69 279 1.7 2.6 0.00 0.00 0.00 36 1005.9
20260505114351 69 254 0.9 1.7 0.00 0.00 0.00 35 1005.6
20260505113848 68 255 0.0 0.9 0.00 0.00 0.00 35 1005.4
20260505113344 68 246 0.0 1.7 0.00 0.00 0.00 35 1005.4
20260505112840 67 145 0.9 0.9 0.00 0.00 0.00 38 1005.5
20260505112338 67 227 0.0 2.6 0.00 0.00 0.00 38 1005.3
20260505111833 66 209 0.0 2.6 0.00 0.00 0.00 41 1005.5
20260505111329 65 172 0.0 2.6 0.00 0.00 0.00 43 1005.5
20260505110825 64 203 0.0 1.7 0.00 0.00 0.00 46 1005.5
20260505110323 64 90 0.0 0.0 0.00 0.00 0.00 49 1005.5
20260505101757 65 115 1.7 2.6 0.00 0.00 0.00 42 1005.5
20260505101253 64 161 1.7 2.6 0.00 0.00 0.00 47 1005.4
20260505100749 65 166 2.6 2.6 0.00 0.00 0.00 45 1005.3
20260505100246 64 145 0.9 2.6 0.00 0.00 0.00 47 1005.2
20260505095741 62 172 0.0 0.0 0.00 0.00 0.00 50 1005.3
20260505095240 63 14 0.0 2.6 0.00 0.00 0.00 53 1005.3
20260505094735 62 0 0.0 0.0 0.00 0.00 0.00 51 1005.4
20260505094231 62 81 0.0 1.7 0.00 0.00 0.00 55 1005.1
20260505093728 63 26 1.7 2.6 0.00 0.00 0.00 52 1005.3
20260505093225 63 90 0.0 0.0 0.00 0.00 0.00 51 1005.2
20260505092722 64 90 0.0 0.9 0.00 0.00 0.00 45 1005.0
20260505092221 65 157 0.0 0.9 0.00 0.00 0.00 44 1005.3
20260505091718 66 169 0.0 0.0 0.00 0.00 0.00 45 1005.1
20260505091216 66 180 0.0 0.0 0.00 0.00 0.00 44 1005.4
20260505090713 66 195 0.0 0.0 0.00 0.00 0.00 42 1005.2
20260505090211 66 188 0.0 2.6 0.00 0.00 0.00 42 1005.3
20260505085708 66 180 0.0 0.0 0.00 0.00 0.00 44 1005.4
20260505085206 66 180 0.0 0.9 0.00 0.00 0.00 46 1005.5
20260505084703 65 249 0.0 1.7 0.00 0.00 0.00 48 1005.4
20260505084202 64 249 0.0 1.7 0.00 0.00 0.00 52 1005.3
20260505083659 64 180 0.9 2.6 0.00 0.00 0.00 52 1005.4
20260505083155 64 244 3.5 3.5 0.00 0.00 0.00 52 1005.3
20260505082651 63 200 0.9 4.3 0.00 0.00 0.00 51 1005.2
20260505082148 63 241 1.7 2.6 0.00 0.00 0.00 53 1005.3
20260505081644 64 201 1.7 2.6 0.00 0.00 0.00 54 1005.4
20260505081142 63 213 1.7 2.6 0.00 0.00 0.00 56 1005.4
20260505080639 63 208 1.7 1.7 0.00 0.00 0.00 56 1005.6
20260505080135 63 257 1.7 2.6 0.00 0.00 0.00 55 1005.6
20260505075631 63 208 1.7 1.7 0.00 0.00 0.00 55 1005.5
20260505075128 63 219 2.6 2.6 0.00 0.00 0.00 57 1005.7
20260505074625 63 235 3.5 3.5 0.00 0.00 0.00 56 1005.6
20260505074122 62 230 2.6 2.6 0.00 0.00 0.00 58 1005.6
20260505073620 62 213 1.7 2.6 0.00 0.00 0.00 58 1005.6
20260505073118 62 253 2.6 2.6 0.00 0.00 0.00 59 1005.7
20260505072613 62 243 2.6 2.6 0.00 0.00 0.00 58 1005.5
20260505072110 62 245 1.7 2.6 0.00 0.00 0.00 58 1005.6
20260505071605 62 217 1.7 2.6 0.00 0.00 0.00 56 1006.0
20260505071103 63 215 0.9 1.7 0.00 0.00 0.00 55 1005.7
20260505070600 63 248 1.7 3.5 0.00 0.00 0.00 53 1005.9
20260505070056 64 225 1.7 3.5 0.00 0.00 0.00 50 1005.9
20260505065552 64 208 1.7 3.5 0.00 0.00 0.00 51 1005.7
20260505065049 64 236 1.7 2.6 0.00 0.00 0.00 52 1005.7
20260505064546 64 231 1.7 1.7 0.00 0.00 0.00 52 1005.6
20260505064045 64 220 1.7 1.7 0.00 0.00 0.00 51 1005.3
20260505063542 63 255 0.0 1.7 0.00 0.00 0.00 53 1005.5
20260505063037 63 270 0.0 0.0 0.00 0.00 0.00 58 1005.7
20260505062534 63 270 0.0 0.9 0.00 0.00 0.00 53 1005.6
20260505062031 63 246 0.0 0.9 0.00 0.00 0.00 55 1005.5
20260505061529 64 98 0.0 0.9 0.00 0.00 0.00 54 1006.0
20260505061027 64 172 0.0 0.0 0.00 0.00 0.00 51 1005.6
20260505060524 65 172 0.0 1.7 0.00 0.00 0.00 51 1005.6
20260505060020 64 209 0.9 1.7 0.00 0.00 0.00 51 1005.9
20260505055516 64 243 0.0 0.9 0.00 0.00 0.00 52 1005.7
20260505055013 64 145 0.0 0.0 0.00 0.00 0.00 53 1005.6
20260505054510 65 145 0.0 0.9 0.00 0.00 0.00 53 1005.7
20260505054008 65 154 0.0 0.0 0.00 0.00 0.00 53 1006.2
20260505053505 66 154 0.0 0.0 0.00 0.00 0.00 52 1006.0
20260505053001 66 228 0.0 1.7 0.00 0.00 0.00 49 1006.3
20260505052459 67 15 0.0 0.9 0.00 0.00 0.00 47 1006.3
20260505051956 66 299 1.7 2.6 0.00 0.00 0.00 47 1006.3
20260505051452 66 0 0.0 0.0 0.00 0.00 0.00 48 1006.2
20260505050951 66 12 0.9 1.7 0.00 0.00 0.00 48 1006.4
20260505050449 66 23 0.0 1.7 0.00 0.00 0.00 49 1006.3
20260505041416 74 287 1.7 2.6 0.00 0.00 0.00 31 1006.3
20260505040913 73 308 4.3 4.3 0.00 0.00 0.00 32 1006.3
20260505040411 72 278 2.6 4.3 0.00 0.00 0.00 34 1006.3
20260505035907 71 276 1.7 2.6 0.00 0.00 0.00 35 1006.2
20260505035403 71 229 1.7 4.3 0.00 0.00 0.00 35 1006.7
20260505034901 70 185 0.9 2.6 0.00 0.00 0.00 36 1005.9
20260505034357 71 194 0.0 1.7 0.00 0.00 0.00 36 1006.0
20260505033855 72 253 1.7 2.6 0.00 0.00 0.00 34 1005.7
20260505033351 73 275 1.7 2.6 0.00 0.00 0.00 33 1005.6
20260505032849 74 270 0.0 2.6 0.00 0.00 0.00 31 1006.0
20260505032346 74 270 1.7 4.3 0.00 0.00 0.00 30 1005.5
20260505031842 75 270 0.0 5.2 0.00 0.00 0.00 28 1005.3
20260505031339 76 294 2.6 7.0 0.00 0.00 0.00 27 1005.2
20260505030837 76 263 2.6 6.1 0.00 0.00 0.00 27 1005.2
20260505030332 76 264 4.3 5.2 0.00 0.00 0.00 27 1004.9
20260505025828 76 233 2.6 5.2 0.00 0.00 0.00 27 1005.2
20260505025326 76 275 1.7 6.1 0.00 0.00 0.00 27 1005.1
20260505024824 76 287 1.7 3.5 0.00 0.00 0.00 29 1005.3
20260505024322 77 270 0.0 2.6 0.00 0.00 0.00 27 1004.9
20260505023818 78 283 2.6 3.5 0.00 0.00 0.00 25 1004.9
20260505023315 79 254 0.0 3.5 0.00 0.00 0.00 24 1004.5
20260505022813 79 285 0.9 4.3 0.00 0.00 0.00 23 1004.4
20260505022310 79 221 1.7 2.6 0.00 0.00 0.00 23 1004.7
20260505021807 80 236 1.7 2.6 0.00 0.00 0.00 22 1004.9
20260505021303 79 241 2.6 5.2 0.00 0.00 0.00 23 1005.1
20260505020759 80 239 5.2 7.0 0.00 0.00 0.00 22 1004.8
20260505020254 79 225 3.5 4.3 0.00 0.00 0.00 23 1005.1
20260505015752 79 312 1.7 6.1 0.00 0.00 0.00 23 1005.1
20260505015249 79 270 2.6 6.1 0.00 0.00 0.00 23 1005.1
20260505014746 78 344 2.6 5.2 0.00 0.00 0.00 24 1005.1
20260505014243 79 281 1.7 4.3 0.00 0.00 0.00 24 1004.8
20260505013739 79 292 1.7 5.2 0.00 0.00 0.00 24 1004.9
20260505013237 79 281 2.6 4.3 0.00 0.00 0.00 24 1004.8
20260505012735 79 285 0.0 3.5 0.00 0.00 0.00 25 1004.9
20260505012232 79 270 1.7 2.6 0.00 0.00 0.00 25 1004.9
20260505011728 79 270 0.0 1.7 0.00 0.00 0.00 25 1004.9
20260505011225 80 250 2.6 3.5 0.00 0.00 0.00 24 1005.0
20260505010721 80 257 0.0 2.6 0.00 0.00 0.00 24 1005.0
20260505010217 80 0 0.0 3.5 0.00 0.00 0.00 24 1004.8
20260505005714 80 251 0.0 3.5 0.00 0.00 0.00 23 1004.8
20260505005211 81 270 0.9 2.6 0.00 0.00 0.00 22 1004.8
20260505004708 81 291 0.9 4.3 0.00 0.00 0.00 21 1004.8
20260505004204 81 283 0.9 4.3 0.00 0.00 0.00 20 1004.8
20260505003702 82 291 0.9 7.8 0.00 0.00 0.00 19 1004.9
20260505003159 82 264 1.7 6.1 0.00 0.00 0.00 20 1005.0
20260505002655 82 264 2.6 7.0 0.00 0.00 0.00 19 1005.2
20260505002153 82 299 3.5 6.1 0.00 0.00 0.00 19 1004.9
20260505001650 82 301 5.2 8.7 0.00 0.00 0.00 19 1005.1
20260505001148 83 270 6.1 7.8 0.00 0.00 0.00 19 1005.2
20260505000644 83 253 4.3 7.0 0.00 0.00 0.00 19 1005.1
20260505000143 83 259 4.3 10.4 0.00 0.00 0.00 18 1005.1
20260504235638 83 247 5.2 7.8 0.00 0.00 0.00 18 1005.2
20260504235135 83 293 7.8 13.9 0.00 0.00 0.00 19 1005.0
20260504234632 83 255 6.1 14.8 0.00 0.00 0.00 18 1005.1
20260504234130 83 250 7.8 16.5 0.00 0.00 0.00 19 1005.0
20260504233625 83 257 11.3 13.9 0.00 0.00 0.00 19 1005.1
20260504233121 83 241 8.7 19.1 0.00 0.00 0.00 18 1005.0
20260504232619 83 308 7.8 11.3 0.00 0.00 0.00 18 1005.2
20260504232116 84 309 9.6 14.8 0.00 0.00 0.00 18 1004.9
20260504231613 84 253 12.2 15.6 0.00 0.00 0.00 18 1004.9
20260504231109 84 256 4.3 13.0 0.00 0.00 0.00 19 1005.2
20260504230605 85 294 7.0 12.2 0.00 0.00 0.00 18 1004.8
20260504230104 84 282 10.4 15.6 0.00 0.00 0.00 18 1005.1
20260504225601 85 251 7.0 16.5 0.00 0.00 0.00 17 1004.8
20260504225058 85 228 8.7 16.5 0.00 0.00 0.00 17 1005.3
20260504224555 84 257 7.0 12.2 0.00 0.00 0.00 18 1004.9
20260504224052 84 255 9.6 14.8 0.00 0.00 0.00 17 1005.1
20260504223549 84 273 3.5 14.8 0.00 0.00 0.00 16 1005.2
20260504223044 84 267 3.5 12.2 0.00 0.00 0.00 17 1005.1
20260504222542 84 247 3.5 15.6 0.00 0.00 0.00 17 1005.4
20260504222039 84 239 7.8 12.2 0.00 0.00 0.00 16 1005.0
20260504221536 83 266 6.1 21.7 0.00 0.00 0.00 16 1005.1
20260504221032 84 282 7.0 13.9 0.00 0.00 0.00 17 1005.2
20260504220529 84 239 12.2 20.0 0.00 0.00 0.00 17 1005.3
20260504220026 84 231 13.9 23.5 0.00 0.00 0.00 17 1005.3
20260504215523 84 248 5.2 18.2 0.00 0.00 0.00 17 1005.2
20260504215020 85 262 7.0 17.4 0.00 0.00 0.00 17 1005.4
20260504214516 85 230 10.4 13.0 0.00 0.00 0.00 16 1005.4
20260504214012 86 320 4.3 21.7 0.00 0.00 0.00 16 1005.3
20260504213509 86 247 13.9 18.2 0.00 0.00 0.00 16 1005.3
20260504213007 86 275 7.0 15.6 0.00 0.00 0.00 16 1005.5
20260504212502 86 247 4.3 9.6 0.00 0.00 0.00 16 1005.1
20260504212000 87 242 6.1 8.7 0.00 0.00 0.00 16 1005.4
20260504211456 86 289 1.7 9.6 0.00 0.00 0.00 16 1005.4
20260504210954 86 227 4.3 6.1 0.00 0.00 0.00 17 1005.5
20260504210450 87 278 5.2 8.7 0.00 0.00 0.00 17 1005.7
20260504205947 86 296 4.3 11.3 0.00 0.00 0.00 16 1006.1
20260504205444 87 278 3.5 8.7 0.00 0.00 0.00 17 1006.0
20260504204943 86 214 5.2 9.6 0.00 0.00 0.00 17 1006.1
20260504204441 86 313 5.2 8.7 0.00 0.00 0.00 17 1006.2
20260504203940 86 273 2.6 8.7 0.00 0.00 0.00 18 1006.4
20260504203437 86 310 2.6 10.4 0.00 0.00 0.00 19 1006.3
20260504202933 86 329 2.6 5.2 0.00 0.00 0.00 19 1006.4
20260504202430 85 280 3.5 10.4 0.00 0.00 0.00 18 1006.6
20260504201926 84 232 3.5 9.6 0.00 0.00 0.00 19 1006.5
20260504201424 84 324 2.6 7.0 0.00 0.00 0.00 19 1006.5
20260504200921 84 267 3.5 8.7 0.00 0.00 0.00 19 1006.8
20260504200418 85 275 5.2 11.3 0.00 0.00 0.00 20 1006.8
20260504195915 84 254 3.5 13.9 0.00 0.00 0.00 20 1006.6
20260504195410 84 280 3.5 8.7 0.00 0.00 0.00 19 1006.8
20260504194907 85 308 1.7 8.7 0.00 0.00 0.00 20 1007.1
20260504194403 84 315 2.6 6.1 0.00 0.00 0.00 19 1006.9
20260504193859 85 286 0.9 6.1 0.00 0.00 0.00 19 1007.1
20260504193356 84 248 7.0 11.3 0.00 0.00 0.00 19 1007.4
20260504192855 84 259 1.7 7.8 0.00 0.00 0.00 20 1007.2
20260504192352 84 258 3.5 7.8 0.00 0.00 0.00 19 1007.1